Waarnemingen

Advertentie
Mijn weer
Helsingborg, Zweden (2611): temperatuur & dauwpunt: 20.05.2019 15:00:00 - 26.05.2019 15:00:00 (CEST)Helsingborg, Zweden (2611): windsnelheid & windstoten: 20.05.2019 15:00:00 - 26.05.2019 15:00:00 (CEST)Helsingborg, Zweden (2611): windrichting: 20.05.2019 15:00:00 - 26.05.2019 15:00:00 (CEST)Helsingborg, Zweden (2611): luchtdruk: 20.05.2019 15:00:00 - 26.05.2019 15:00:00 (CEST)Helsingborg, Zweden (2611): zicht: 20.05.2019 15:00:00 - 26.05.2019 15:00:00 (CEST)Helsingborg, Zweden (2611): neerslag: 20.05.2019 15:00:00 - 26.05.2019 15:00:00 (CEST)
Datum & Tijd tt [°C] td [°C] ff [km/u] ff [kn] fx [km/u] fx [kn] dd ppp [hPa] vv [km] rr [mm]
26.05.2019 15:00:00 14,1 9,3 16 9 31 17 WNW 1004,0 42 0,0
26.05.2019 14:00:00 12,8 9,2 17 9 33 18 W 1004,0 44 0,0
26.05.2019 13:00:00 11,6 10,3 13 7 31 17 WZW 1004,0 34 0,6
26.05.2019 12:00:00 10,9 9,8 18 10 34 18 ZW 1003,9 5 0,5
26.05.2019 11:00:00 10,5 9,4 17 9 31 17 ZW 1004,1 4,3 0,1
26.05.2019 10:00:00 9,9 9,1 17 9 37 20 ZW 1004,7 6 0,2
26.05.2019 09:00:00 10,0 8,3 24 13 37 20 ZW 1005,3 17 0,0
26.05.2019 08:00:00 9,6 8,4 23 12 39 21 ZW 1006,0 8 0,6
26.05.2019 07:00:00 9,3 8,1 16 9 34 18 ZW 1006,7 8 0,8
26.05.2019 06:00:00 9,6 7,7 16 8 36 19 WZW 1007,4 8 0,2
26.05.2019 05:00:00 10,2 6,7 16 9 36 19 WZW 1007,7 41 0,0
26.05.2019 04:00:00 10,5 5,7 13 7 29 16 W 1008,3 46 0,0
26.05.2019 03:00:00 10,3 5,7 17 9 34 18 WZW 1008,7 44 0,0
26.05.2019 02:00:00 10,7 5,5 17 9 33 18 W 1009,3 37 0,0
26.05.2019 01:00:00 11,1 6,6 17 9 37 20 WZW 1009,7 50 0,0
26.05.2019 00:00:00 11,4 7,1 10 6 23 12 WZW 1010,2 20 0,0
25.05.2019 23:00:00 11,6 6,5 12 7 26 14 ZW 1010,3 50 0,0
25.05.2019 22:00:00 11,8 5,4 7 4 29 16 WZW 1010,9 50 0,0
25.05.2019 21:00:00 12,3 7,0 14 8 35 19 W 1010,9 50 0,0
25.05.2019 20:00:00 13,8 7,1 16 9 35 19 WNW 1010,8 49 0,0
25.05.2019 19:00:00 15,6 7,9 16 8 31 17 WNW 1010,8 40 0,0
25.05.2019 18:00:00 16,7 8,4 14 7 34 18 WNW 1010,9 33 0,0
25.05.2019 17:00:00 16,6 7,8 13 7 26 14 W 1010,9 41 0,0
25.05.2019 16:00:00 17,4 9,1 11 6 26 14 WNW 1011,1 28 0,0
25.05.2019 15:00:00 15,9 8,4 14 8 25 13 ZW 1011,3 31 0,0
25.05.2019 14:00:00 14,7 8,4 14 8 26 14 W 1011,3 31 0,0
25.05.2019 13:00:00 14,1 7,8 12 7 22 12 WZW 1011,4 31 0,0
25.05.2019 12:00:00 12,9 7,8 10 6 21 12 W 1011,5 39 0,0
25.05.2019 11:00:00 12,3 7,4 13 7 22 12 W 1011,3 39 0,0
25.05.2019 10:00:00 12,0 7,9 0 0 20 11 N 1010,9 38 0,0
25.05.2019 09:00:00 11,7 7,4 11 6 23 12 W 1010,5 40 0,0
25.05.2019 08:00:00 11,3 7,6 14 7 24 13 W 1010,2 38 0,0
25.05.2019 07:00:00 10,6 7,7 9 5 22 12 W 1009,9 43 0,0
25.05.2019 06:00:00 9,9 7,3 0 0 13 7 N 1009,8 46 0,0
25.05.2019 05:00:00 9,0 6,6 0 0 0 0 N 1009,5 49 0,0
25.05.2019 04:00:00 9,9 6,6 0 0 15 8 N 1009,4 47 0,0
25.05.2019 03:00:00 9,8 6,5 2 1 17 9 W 1009,2 50 0,0
25.05.2019 02:00:00 9,9 6,6 6 4 16 9 W 1009,2 50 0,0
25.05.2019 01:00:00 9,6 6,7 0 0 21 11 N 1009,2 46 0,0
25.05.2019 00:00:00 10,2 6,7 9 5 24 13 W 1009,1 46 0,0
24.05.2019 23:00:00 11,0 6,5 10 5 26 14 W 1008,9 45 0,0
24.05.2019 22:00:00 12,0 6,9 8 4 25 13 W 1008,6 50 0,0
24.05.2019 21:00:00 12,2 8,1 13 7 25 14 WZW 1008,5 50 0,0
24.05.2019 20:00:00 12,5 8,0 14 8 31 17 W 1008,3 50 0,0
24.05.2019 19:00:00 12,7 8,4 16 9 31 17 WZW 1008,2 46 0,0
24.05.2019 18:00:00 13,3 9,7 16 9 32 17 WZW 1008,2 36 0,0
24.05.2019 17:00:00 11,9 9,5 19 10 34 19 WZW 1008,7 43 0,2
24.05.2019 16:00:00 11,7 9,8 13 7 29 16 W 1009,0 12 0,9
24.05.2019 15:00:00 12,3 10,5 12 6 34 19 WZW 1008,8 4,4 1,0
24.05.2019 14:00:00 15,2 8,0 18 10 32 17 ZW 1008,2 44 0,0
24.05.2019 13:00:00 16,7 6,2 18 10 34 19 ZW 1008,7 46 0,0
24.05.2019 12:00:00 17,7 5,6 18 10 35 19 ZZW 1009,3 38 0,0
24.05.2019 11:00:00 16,7 5,0 16 9 26 14 Z 1009,9 36 0,0
24.05.2019 10:00:00 15,7 5,0 13 7 23 12 ZZW 1010,4 33 0,0
24.05.2019 09:00:00 14,2 6,1 13 7 21 12 ZZW 1010,8 38 0,0
24.05.2019 08:00:00 12,8 6,4 10 5 21 11 ZZW 1011,2 31 0,0
24.05.2019 07:00:00 12,1 6,6 10 5 19 10 ZW 1011,0 31 0,0
24.05.2019 06:00:00 11,7 7,8 0 0 0 0 N 1011,1 24 0,0
24.05.2019 05:00:00 11,6 8,8 0 0 12 6 N 1011,6 25 0,0
24.05.2019 04:00:00 11,4 8,3 0 0 13 7 N 1011,9 26 0,0
24.05.2019 03:00:00 12,3 8,9 5 3 16 8 Z 1012,3 31 0,0
24.05.2019 02:00:00 12,4 8,9 9 5 20 11 Z 1012,7 33 0,0
24.05.2019 01:00:00 13,5 9,2 12 6 21 11 Z 1013,2 36 0,0
24.05.2019 00:00:00 14,0 8,6 5 3 21 11 Z 1013,7 43 0,0
23.05.2019 23:00:00 13,6 8,4 3 2 16 9 Z 1013,9 46 0,0
23.05.2019 22:00:00 14,2 8,2 9 5 18 10 ZZW 1014,2 50 0,0
23.05.2019 21:00:00 15,8 8,3 11 6 21 11 ZZW 1014,3 48 0,0
23.05.2019 20:00:00 16,5 8,0 6 3 20 11 ZZW 1014,2 46 0,0
23.05.2019 19:00:00 16,7 7,9 0 0 0 0 N 1014,3 42 0,0
23.05.2019 18:00:00 17,6 7,3 0 0 18 10 N 1014,5 45 0,0
23.05.2019 17:00:00 17,0 7,9 8 4 16 9 ZZW 1014,9 39 0,0
23.05.2019 16:00:00 17,3 6,8 6 4 21 11 Z 1015,3 27 0,0
23.05.2019 15:00:00 18,2 6,1 4 2 18 10 W 1015,5 34 0,0
23.05.2019 14:00:00 17,8 5,4 0 0 22 12 N 1015,8 44 0,0
23.05.2019 13:00:00 17,8 6,3 10 5 22 12 NW 1016,0 35 0,0
23.05.2019 12:00:00 17,5 5,7 7 4 26 14 NW 1016,3 32 0,0
23.05.2019 11:00:00 14,9 5,7 12 6 26 14 WNW 1016,5 27 0,0
23.05.2019 10:00:00 13,8 6,2 14 8 27 15 WNW 1016,3 32 0,0
23.05.2019 09:00:00 12,4 6,9 6 4 26 14 W 1016,0 38 0,0
23.05.2019 08:00:00 11,2 7,5 11 6 23 12 WNW 1015,8 41 0,0
23.05.2019 07:00:00 11,0 7,7 3 2 22 12 W 1015,4 43 0,0
23.05.2019 06:00:00 9,6 6,1 0 0 18 10 N 1015,2 50 0,0
23.05.2019 05:00:00 8,6 6,4 2 1 19 10 NW 1015,4 50 0,0
23.05.2019 04:00:00 9,3 6,0 9 5 26 14 NW 1015,4 50 0,0
23.05.2019 03:00:00 9,9 6,4 12 7 32 18 NW 1015,4 50 0,0
23.05.2019 02:00:00 10,1 6,3 13 7 29 15 NW 1015,3 50 0,0
23.05.2019 01:00:00 11,0 6,7 13 7 32 18 NW 1015,1 50 0,0
23.05.2019 00:00:00 11,3 7,8 16 9 34 19 NW 1014,8 38 0,0
22.05.2019 23:00:00 11,4 7,9 16 9 31 17 WNW 1014,6 41 0,0
22.05.2019 22:00:00 11,8 8,3 17 9 36 20 NW 1014,3 39 0,0
22.05.2019 21:00:00 11,8 8,8 11 6 40 22 NW 1014,2 42 0,0
22.05.2019 20:00:00 12,0 8,8 16 9 34 19 NW 1013,6 39 0,0
22.05.2019 19:00:00 12,0 9,4 19 10 40 22 NW 1013,3 30 0,0
22.05.2019 18:00:00 12,3 10,0 15 8 40 21 NW 1012,6 15 0,0
22.05.2019 17:00:00 12,4 10,1 19 10 42 23 WNW 1012,4 34 0,0
22.05.2019 16:00:00 12,4 10,6 19 10 35 19 WNW 1012,0 15 0,0
22.05.2019 15:00:00 12,6 11,2 19 11 37 20 WNW 1011,6 4,0 0,0
22.05.2019 14:00:00 13,7 12,3 19 10 31 17 WNW 1011,4 2,4 0,0
22.05.2019 13:00:00 16,3 13,0 14 7 26 14 WNW 1010,7 19 0,0
22.05.2019 12:00:00 18,2 14,1 7 4 21 11 NW 1010,0 28 0,0
22.05.2019 11:00:00 15,5 12,8 0 0 11 6 N 1009,9 11 0,0
22.05.2019 10:00:00 14,7 12,6 0 0 - - N 1009,8 11 0,0
22.05.2019 09:00:00 13,3 12,4 0 0 - - N 1009,4 6 0,0
22.05.2019 08:00:00 12,8 12,0 0 0 - - N 1009,3 6 0,0
22.05.2019 07:00:00 12,6 12,0 0 0 - - N 1009,0 7 0,0
22.05.2019 06:00:00 12,3 11,7 0 0 - - N 1008,9 2,9 0,0
22.05.2019 05:00:00 12,4 11,6 0 0 - - N 1008,7 2,6 0,0
22.05.2019 04:00:00 12,6 11,7 0 0 0 0 N 1008,6 4,7 0,0
22.05.2019 03:00:00 13,1 11,8 0 0 9 5 N 1008,5 11 0,0
22.05.2019 02:00:00 13,6 12,3 0 0 12 7 N 1008,4 12 0,0
22.05.2019 01:00:00 14,5 13,5 0 0 9 5 N 1008,3 8 0,0
22.05.2019 00:00:00 14,8 13,8 0 0 11 6 N 1008,2 3,5 0,0
21.05.2019 23:00:00 15,1 14,0 0 0 - - N 1007,9 5 0,0
21.05.2019 22:00:00 14,9 13,8 0 0 - - N 1008,0 4,7 0,0
21.05.2019 21:00:00 14,8 13,5 0 0 - - N 1007,6 5 0,0
21.05.2019 20:00:00 15,2 13,6 0 0 - - N 1007,3 8 0,0
21.05.2019 19:00:00 15,9 14,1 0 0 0 0 N 1006,9 9 0,0
21.05.2019 18:00:00 16,7 14,2 0 0 15 8 N 1006,5 13 0,0
21.05.2019 17:00:00 19,7 15,3 0 0 16 8 N 1006,2 19 0,0
21.05.2019 16:00:00 18,5 14,8 0 0 14 7 N 1006,3 23 0,0
21.05.2019 15:00:00 21,0 16,0 7 4 21 12 Z 1006,0 22 0,0
21.05.2019 14:00:00 19,6 15,5 0 0 14 7 N 1005,8 25 0,0
21.05.2019 13:00:00 22,2 15,5 0 0 0 0 N 1005,3 32 0,0
21.05.2019 12:00:00 21,1 16,3 0 0 19 10 N 1005,4 29 0,0
21.05.2019 11:00:00 20,1 15,1 5 3 18 10 OZO 1005,4 33 0,0
21.05.2019 10:00:00 19,4 16,4 0 0 14 8 N 1005,4 32 0,6
21.05.2019 09:00:00 17,3 14,8 0 0 17 9 N 1004,7 21 0,0
21.05.2019 08:00:00 18,1 15,4 7 4 16 9 NNO 1005,0 32 0,0
21.05.2019 07:00:00 15,9 14,9 0 0 - - N 1005,2 15 0,0
21.05.2019 06:00:00 14,4 13,6 0 0 - - N 1005,2 7 0,0
21.05.2019 05:00:00 14,1 13,1 0 0 0 0 N 1005,2 10 0,2
21.05.2019 04:00:00 14,1 13,1 2 1 19 10 NNW 1005,0 12 0,0
21.05.2019 03:00:00 13,5 12,4 0 0 14 7 N 1005,7 12 0,0
21.05.2019 02:00:00 13,5 12,2 11 6 18 10 N 1005,5 14 0,0
21.05.2019 01:00:00 14,2 12,8 5 3 20 11 NNW 1006,3 35 0,0
21.05.2019 00:00:00 13,6 12,2 4 2 18 10 N 1006,6 16 0,0
20.05.2019 23:00:00 14,4 12,6 10 5 17 9 N 1006,6 28 0,0
20.05.2019 22:00:00 14,7 12,6 4 2 15 8 N 1006,9 47 0,0
20.05.2019 21:00:00 16,6 13,7 0 0 16 8 N 1006,6 43 0,0
20.05.2019 20:00:00 19,1 14,1 6 4 23 12 N 1006,5 34 0,0
20.05.2019 19:00:00 21,1 14,7 3 2 20 11 NNW 1006,5 31 0,0
20.05.2019 18:00:00 22,4 15,7 2 1 18 10 NNW 1006,6 24 0,0
20.05.2019 17:00:00 21,4 16,1 4 2 25 14 WNW 1006,4 25 0,0
20.05.2019 16:00:00 21,6 14,5 - - 0 0 N 1007,1 27 0,0
20.05.2019 15:00:00 20,7 14,8 - - 1 1 N 1007,5 29 0,0

tt = temperatuur
td = dauwpunt
ff = windsnelheid
fx = windstoten
dd = windrichting
ppp = luchtdruk
vv = zicht
rr = neerslag

Weerstations in de omgeving